Torna al catalogo

STARLINK-6116

AttivoComunicazioniVLEO
NORAD 56911·PAYLOAD·🇺🇸 United States

Lanciato Jun 12, 2023 da Cape Canaveral Space Force Station

Loading…

Prossimi Passaggi (prossime 24 ore)

TLE

AggiornatoSource: CelesTrak SupGP

Epoca: Sep 14, 2026, 20:57 UTC

1 56911C 23083AM  26257.87340278  .00017524  00000+0  63488-3 0  2576
2 56911  43.0012  82.0826 0001163 262.6186  94.2997 15.27561942    15

Traccia STARLINK-6116 in tempo reale con AllMySat

Download on the App Store